This is the latest recevied weather packets stored in our database for station/object DO3HUM-5. If no packets are shown the sender has not sent any weather packets the latest 10 day(s).
| Time | Temp. | Humidity | Pressure | Rain* | Wind** | Luminosity | Snow |
|---|---|---|---|---|---|---|---|
| 1777683063 | 6.67° C | 86% | 1031.5 hPa | 0 mm | - | - | - |
| 1777682460 | 6.67° C | 86% | 1031.6 hPa | 0 mm | - | - | - |
| 1777681855 | 6.67° C | 86% | 1031.7 hPa | 0 mm | - | - | - |
| 1777681253 | 7.22° C | 85% | 1031.8 hPa | 0 mm | - | - | - |
| 1777680650 | 6.67° C | 86% | 1031.7 hPa | 0 mm | - | - | - |
| 1777680047 | 7.22° C | 84% | 1031.9 hPa | 0 mm | - | - | - |
| 1777679444 | 7.78° C | 83% | 1031.8 hPa | 0 mm | - | - | - |
| 1777678843 | 7.78° C | 83% | 1031.9 hPa | 0 mm | - | - | - |
| 1777678238 | 7.78° C | 84% | 1031.9 hPa | 0 mm | - | - | - |
| 1777677635 | 7.78° C | 84% | 1032 hPa | 0 mm | - | - | - |
| 1777677032 | 7.22° C | 83% | 1032 hPa | 0 mm | - | - | - |
| 1777676430 | 7.78° C | 83% | 1032 hPa | 0 mm | - | - | - |
| 1777675827 | 7.78° C | 83% | 1032 hPa | 0 mm | - | - | - |
| 1777675224 | 7.78° C | 83% | 1032.2 hPa | 0 mm | - | - | - |
| 1777674622 | 8.33° C | 83% | 1032.3 hPa | 0 mm | - | - | - |
| 1777674019 | 7.78° C | 83% | 1032.3 hPa | 0 mm | - | - | - |
| 1777673415 | 8.33° C | 82% | 1032.4 hPa | 0 mm | - | - | - |
| 1777672873 | 8.33° C | 81% | 1032.3 hPa | 0 mm | - | - | - |
| 1777672272 | 8.89° C | 80% | 1032.4 hPa | 0 mm | - | - | - |
| 1777671667 | 9.44° C | 79% | 1032.4 hPa | 0 mm | - | - | - |
| 1777671065 | 9.44° C | 77% | 1032.4 hPa | 0 mm | - | - | - |
| 1777670461 | 10° C | 77% | 1032.4 hPa | 0 mm | - | - | - |
| 1777669859 | 9.44° C | 76% | 1032.4 hPa | 0 mm | - | - | - |
| 1777669256 | 10° C | 76% | 1032.6 hPa | 0 mm | - | - | - |
| 1777668651 | 10.56° C | 74% | 1032.5 hPa | 0 mm | - | - | - |
* Rain latest hour (hover to see other rain measurements)
** Current wind speed in m/s (hover to see current wind gust speed)